User: anonymous   Login
Location: Unspecified
(0.0000°N, 0.0000°E)
Time: 04:08:40
(UTC+00:00)
Language:

NOSS 3-4 (C) - Orbit

View from above orbital plane
View from above orbital plane
View from above satellite
View from above satellite

Ground track
Ground track

The orbit data is extracted from the following two-line orbital elements,

1 31708U 07027C   18019.76551976 0.00000000  00000-0  00000-0 0    03
2 31708  63.4011 251.4245 0208000  21.8230 338.1770 13.40742799    00
Epoch (UTC): 19 January 2018 18:22:20
Eccentricity: 0.0208000
inclination: 63.4011°
perigee height: 951 km
apogee height: 1262 km
right ascension of ascending node: 251.4245°
argument of perigee: 21.8230°
revolutions per day: 13.40742799
mean anomaly at epoch: 338.1770°
orbit number at epoch: 0

The dashed part of the orbit path shows where the satellite is in the earth's shadow,  

DLR